Погода в Луге

Россия / Курская область     51°16′49″N   36°38′56″E
темп.,
°C
ветер,
м/с
пор.,
м/с
влажн.,
%
обл.,
%
осадки,
мм/ч
давл.,
гПа
погр.,
м
4 августа, ср
ср400:00+17с347460 0.0 101567
03:00+16св347556 0.0 101587
06:00+16сз127592 0.0 101647
09:00+20зсз235819 0.0 1017591
12:00+25зсз554099 0.0 10172548
15:00+25сз5532100 0.0 10162479
18:00+24сз55325 0.0 10172338
21:00+17св34526 0.0 101848
5 августа, чт
чт500:00+15всв336018 0.0 101826
03:00+14юв2263100 0.0 101812
06:00+15юв336012 0.0 101852
09:00+23ююв4540100 0.0 1018570
12:00+27ю342980 0.0 10172389
15:00+29ю352694 0.0 10142830
18:00+28ю3630100 0.0 1013431
21:00+22св4753100 0.0 1014173
6 августа, пт
пт600:00+21ююв35457 0.0 1013104
03:00+19ююв5135088 0.0 1012229
06:00+18ююв4115197 0.0 1012200
09:00+26ююв6934100 0.0 1011551
12:00+32ю792438 0.0 10102053
15:00+34ю78225 0.0 10082966
18:00+34ю5827100 0.0 10072536
21:00+25юв4654100 1.1 100881
7 августа, сб
сб700:00+23ююв4752100 0.1 1008103
03:00+22ююв5154132 0.1 1008327
06:00+19юв41058100 0.2 1009183
09:00+23ююв51060100 0.4 1009430
12:00+27юв6847100 0.6 1009878
15:00+28всв2545100 2.0 1008430
18:00+27всв5940100 0.0 1006295
21:00+24ююз1146100 0.0 100714
8 августа, вс
вс800:00+21юз4764100 0.1 1010149
03:00+21св3667100 0.1 1009126
06:00+20ссз4873100 0.0 1009193
09:00+22ссв51067100 0.0 1009361
12:00+27с564698 0.0 10091175
15:00+29сз664052 0.0 10101756
18:00+27сз775019 0.0 10111214
21:00+20сз611840 0.1 1014393